Dewpoint
47 48 48 49 51 54 53 50 44 54 55 44 43 38 38 37 38 40 38 37 36 33 36 33 33 28 32 32 34 26 28 35 35 28 28 24 25 25 27 29 29 31 30 29
47 47 48 49 49 53 51 47 47 55 51 37 39 41 40 43 40 39 37 36 37 36 40 39 38 33 40 39 38 34 30 33 35 36 32 31 30 26 28 29 30 33 30 27
46 47 47 49 49 53 52 47 42 48 46 44 40 40 41 41 43 38 38 37 36 38 42 38 38 41 40 38 37 37 41 32 36 36 37 33 29 28 30 33 35 32 32 29
45 47 47 47 50 53 52 46 43 44 39 42 42 42 41 40 38 40 39 38 37 36 35 38 37 42 40 38 36 38 38 30 37 38 36 33 34 31 33 30 31 29 30 30
45 46 45 47 49 52 50 45 43 45 41 43 42 41 40 40 40 39 40 38 38 38 35 35 35 40 44 36 37 36 37 36 37 38 33 32 33 33 37 31 30 28 28 27
46 47 46 48 48 50 48 48 49 45 43 41 40 40 39 41 40 41 41 40 38 36 35 38 40 41 41 39 38 37 37 36 35 34 33 29 28 29 29 28 28 29 28 30
45 46 47 46 48 49 51 50 49 43 39 42 40 39 40 41 41 40 40 41 38 39 40 41 40 39 39 40 39 38 37 36 37 35 33 30 32 31 29 28 28 29 28 29
44 46 47 47 48 48 50 52 49 45 40 43 41 40 41 42 42 43 40 40 42 42 39 37 34 34 35 37 38 38 39 38 36 34 32 30 27 28 27 27 26 28 29 29
44 45 46 47 47 47 47 51 52 47 41 40 41 42 42 43 43 45 46 48 47 44 42 39 33 31 30 31 32 36 37 39 38 36 31 26 25 27 29 29 25 26 28 30
43 44 46 46 47 45 45 49 52 47 42 45 45 43 43 45 45 43 46 47 46 45 39 37 34 31 30 28 31 35 37 38 37 34 32 33 29 28 29 24 28 30 31 30
42 43 46 46 47 45 46 47 52 47 44 46 47 48 47 46 46 41 45 43 43 44 39 37 34 31 30 28 31 34 36 35 36 36 34 31 32 30 28 33 34 31 30 31
41 44 45 45 47 46 46 44 51 49 43 42 46 46 47 48 49 45 46 42 43 43 40 37 35 32 32 29 29 34 33 34 34 34 34 35 35 34 34 36 35 34 32 31
41 44 45 45 46 46 46 46 48 45 41 42 43 44 45 48 48 51 43 45 44 42 41 39 38 32 32 31 30 31 33 35 35 34 34 35 34 34 34 33 34 33 33 33
41 44 44 44 46 46 47 45 49 45 41 36 38 44 43 47 48 51 51 49 48 46 45 43 41 37 35 33 33 32 33 33 33 34 35 34 35 34 34 34 34 33 32 31
42 43 43 44 45 46 46 47 50 46 41 34 36 42 44 47 47 49 51 48 47 46 44 42 39 37 35 35 35 32 32 33 34 35 36 37 35 35 35 34 33 31 32 32
43 43 43 44 44 46 44 42 49 49 42 37 34 38 40 47 47 46 48 48 46 43 40 40 37 43 38 36 34 34 33 32 32 35 36 35 35 33 33 32 33 33 31 30
41 42 43 43 43 45 39 38 44 48 43 35 32 34 39 42 46 46 45 46 45 43 40 39 39 39 40 38 34 32 32 32 31 32 32 32 33 32 32 33 32 30 29 30
41 42 43 43 44 45 40 43 47 49 43 39 32 31 36 42 41 39 45 43 44 43 42 40 39 40 39 35 34 33 31 30 31 32 33 33 32 31 30 31 29 28 28 28
40 42 43 41 40 37 40 45 47 47 41 33 34 31 31 40 40 40 40 42 38 39 39 37 37 36 35 34 32 29 30 31 30 29 30 31 30 28 28 25 24 25 26 27
42 41 37 32 35 44 45 39 35 36 37 40 34 36 33 38 37 36 37 37 34 33 35 33 32 32 33 31 30 30 29 26 27 27 26 27 27 25 26 26 26 26 27 29
39 34 33 38 43 38 33 31 31 31 31 37 35 35 35 37 34 34 36 34 33 29 32 32 29 26 30 30 30 28 26 26 26 26 26 27 27 27 26 27 27 28 28 28
37 37 39 36 33 31 30 29 30 31 31 36 34 35 36 35 35 33 32 29 30 25 31 29 27 25 26 28 29 29 27 25 24 25 26 26 25 26 26 27 26 27 29 32
39 37 32 30 30 26 26 24 28 31 34 34 35 34 34 34 33 32 29 28 28 32 29 26 26 23 26 27 29 27 25 27 26 24 24 25 26 27 29 28 27 28 31 36
33 31 26 26 26 28 29 29 30 32 35 34 34 32 31 32 30 30 25 27 29 26 22 21 28 26 26 25 26 25 26 26 25 25 26 27 27 29 32 35 35 33 32 35
31 31 25 28 31 33 31 32 31 34 35 34 31 30 29 29 29 26 25 24 23 22 19 24 29 27 26 26 27 25 25 28 28 27 27 30 30 29 30 36 37 39 38 36
33 31 28 31 32 33 33 33 34 36 32 31 29 28 25 23 24 23 25 22 19 19 22 29 30 25 24 26 27 26 26 27 27 27 29 32 34 33 35 38 39 37 36 34
30 30 33 32 32 33 34 36 34 33 30 27 27 23 19 23 21 19 20 18 23 27 29 29 29 25 26 26 27 29 28 27 28 28 26 27 33 35 36 36 38 39 37 35
Wind_Speed
25 26 32 29 26 31 33 21 19 31 30 23 20 34 29 26 24 31 32 15 21 15 14 13 24 20 12 2 2 15 12 4 6 12 17 23 17 21 19 10 10 3 3 6
24 28 32 29 28 36 22 10 7 28 31 28 32 20 25 11 25 30 25 22 19 18 4 5 16 8 6 5 7 3 14 10 8 9 9 10 12 19 13 14 3 13 9 3
27 31 20 27 26 42 27 8 14 13 22 18 27 27 24 18 24 27 24 22 22 13 19 18 9 6 4 8 8 2 3 4 6 9 7 7 16 13 12 7 3 9 13 13
27 23 21 28 24 40 29 19 7 7 28 32 30 33 24 34 20 27 25 23 20 22 15 19 11 18 15 10 5 6 3 11 1 1 10 7 15 8 9 14 17 12 13 15
22 18 21 27 16 34 27 12 8 9 22 23 26 31 25 40 37 32 24 17 19 30 16 15 12 11 5 9 10 13 9 6 9 12 7 5 8 6 12 12 12 16 16 16
20 18 22 25 22 26 16 15 9 13 17 28 26 36 32 30 32 24 30 29 23 22 14 2 9 12 5 8 14 15 12 6 12 11 11 13 14 16 16 16 17 19 22 17
18 18 20 22 24 23 10 8 12 13 12 27 37 27 28 34 40 22 29 31 19 8 15 14 6 6 4 1 10 3 9 13 8 5 4 9 9 6 7 11 15 17 21 14
16 17 15 17 18 24 28 7 7 7 14 29 29 28 39 32 25 30 16 16 14 18 14 10 6 3 1 7 12 9 6 6 4 5 12 8 8 12 9 8 10 13 11 4
14 18 15 16 14 18 17 13 9 6 15 18 31 34 38 25 20 14 3 11 12 10 6 6 8 9 9 11 7 10 9 4 9 5 6 8 6 1 11 2 9 10 8 8
13 16 18 17 16 17 10 9 15 12 8 2 11 27 31 19 16 16 9 11 7 3 8 7 8 13 12 11 16 10 11 7 13 11 7 8 2 11 10 5 4 8 10 11
12 15 14 14 15 16 11 9 10 10 6 7 1 2 5 17 14 15 12 10 3 11 11 12 11 10 18 14 17 15 15 14 11 11 11 15 12 14 9 4 7 7 6 7
8 15 11 15 7 5 4 6 5 4 7 4 6 6 4 3 3 15 17 8 14 11 12 9 8 8 11 14 13 21 17 12 10 13 9 6 7 14 13 2 1 6 6 4
8 15 12 11 13 6 7 7 10 8 7 4 4 2 7 8 4 6 11 7 10 10 9 6 6 13 7 15 16 16 14 23 10 11 13 10 7 11 6 4 4 6 5 8
12 17 14 10 10 5 8 13 15 15 8 6 2 2 1 1 4 8 4 7 10 4 4 2 4 9 8 11 9 17 12 15 12 9 7 7 11 9 7 7 7 9 11 12
17 18 12 8 7 12 5 11 10 14 11 8 6 6 7 2 2 7 10 22 17 15 16 9 10 9 6 7 6 17 16 13 18 11 9 11 9 10 11 13 14 10 9 11
13 12 9 7 8 4 3 3 9 2 8 8 6 2 3 2 4 13 4 4 7 6 7 7 3 4 3 6 7 11 16 18 17 13 13 10 7 7 7 10 11 12 13 14
11 10 8 4 7 7 5 3 6 9 7 7 8 4 2 2 3 4 5 5 5 4 2 1 1 1 1 2 11 10 19 18 13 9 6 9 9 10 9 8 12 13 15 14
8 7 7 1 5 1 3 9 11 9 8 7 8 4 3 3 5 5 2 4 3 3 3 3 5 3 2 8 15 20 9 8 7 9 11 10 9 9 9 9 11 13 13 14
7 4 7 6 2 1 2 0 10 2 5 8 6 12 9 4 5 6 4 4 5 3 3 4 8 6 11 12 16 14 20 20 19 17 17 18 14 10 8 8 10 12 13 13
13 4 2 2 5 5 8 3 3 5 1 5 6 10 9 15 7 4 4 4 5 4 6 6 4 14 17 12 10 15 15 11 8 10 12 10 8 3 4 5 5 7 9 11
3 5 6 2 3 2 2 3 3 4 5 6 13 20 26 7 12 8 6 6 5 7 6 10 7 11 23 22 20 16 13 12 15 15 12 6 4 5 6 5 4 6 8 10
9 6 4 3 1 3 4 6 4 6 8 11 25 24 20 11 7 7 3 4 6 5 10 6 6 9 12 20 24 21 15 12 14 13 12 11 10 7 4 3 4 6 8 9
4 3 4 4 4 7 8 9 5 9 15 25 33 30 13 6 6 5 6 6 5 15 5 6 8 8 15 16 19 16 13 13 14 14 12 9 8 8 7 6 6 6 8 6
4 6 5 5 6 6 9 12 12 11 28 32 30 24 7 7 5 6 7 7 9 9 8 10 8 13 15 16 17 19 18 16 13 11 11 11 11 9 4 4 6 7 12 11
6 6 5 11 7 10 13 12 16 24 30 32 24 16 10 7 6 5 7 10 9 12 8 8 13 16 20 21 19 18 16 16 13 12 12 9 6 6 8 6 7 7 7 6
5 5 5 5 5 10 15 20 27 30 30 23 13 9 8 5 9 8 9 10 9 7 10 12 18 21 21 19 17 16 14 15 12 13 11 12 11 9 7 5 6 7 8 9
5 5 7 11 9 8 11 22 33 30 25 15 8 8 9 12 7 9 10 6 7 15 13 14 20 20 20 18 16 13 12 11 12 12 8 3 2 1 5 9 10 9 8 7
Wind_Direction
257 253 255 251 264 200 179 197 204 170 157 182 187 207 212 224 211 223 235 260 266 249 254 229 240 232 179 251 287 207 227 202 223 220 215 226 220 213 228 221 227 175 206 158
262 254 245 246 258 191 182 204 152 167 166 181 189 198 200 210 206 214 217 229 239 238 183 249 253 187 163 231 228 163 218 175 190 308 202 221 238 211 217 213 197 187 244 186
266 254 268 241 262 196 192 172 173 170 178 210 187 182 193 198 220 212 210 215 235 206 232 212 186 130 194 202 207 90 313 260 165 202 308 312 217 228 202 166 155 239 218 251
257 253 277 289 261 196 192 203 210 184 179 199 196 190 181 191 203 215 212 225 227 226 210 211 184 165 185 193 158 166 208 247 232 108 214 254 229 241 254 231 208 224 240 256
260 251 267 280 267 211 204 188 183 169 179 181 190 186 194 194 204 188 204 202 209 231 206 204 200 166 286 179 178 187 181 217 155 216 207 214 291 222 240 253 258 258 262 261
265 250 255 258 282 243 202 214 205 164 180 184 181 194 191 202 195 208 193 199 210 222 185 92 38 34 157 134 176 190 177 206 206 233 221 241 237 235 247 252 248 250 253 259
261 252 248 271 279 284 206 166 186 187 194 179 201 187 193 197 197 181 189 205 204 153 98 91 74 79 109 147 185 189 204 205 212 242 215 228 237 235 280 264 274 260 255 254
272 277 254 259 277 293 225 234 179 175 180 196 191 198 194 206 203 200 203 201 160 143 129 121 131 159 183 219 224 201 218 238 155 207 216 256 199 208 206 222 257 236 254 245
265 290 255 262 253 280 297 249 202 171 181 215 204 191 195 193 191 178 178 81 123 119 117 130 165 180 193 189 196 196 219 240 188 178 223 236 237 8 156 231 258 238 182 123
260 284 255 237 230 265 304 261 209 187 187 195 185 190 191 170 174 186 145 146 167 197 132 144 167 212 194 191 189 190 183 199 197 193 215 270 26 139 118 185 224 92 128 149
278 307 269 272 230 247 280 239 213 188 162 102 341 52 155 172 164 161 142 134 170 159 163 178 188 193 199 209 185 183 183 180 194 205 210 242 231 148 179 117 118 146 174 163
264 287 247 263 223 268 257 271 181 127 93 130 24 65 121 51 130 161 163 170 157 167 171 191 195 192 190 188 188 167 200 199 176 186 212 203 257 215 192 303 348 198 207 258
245 265 243 261 192 196 226 282 163 105 102 86 123 156 360 60 24 317 160 150 194 182 178 182 178 195 194 189 199 178 192 198 207 198 233 194 205 143 158 236 212 300 314 297
233 253 221 240 248 216 254 239 178 165 100 122 161 100 147 333 358 248 240 184 210 177 156 68 171 181 207 206 194 228 190 187 201 236 231 176 190 218 242 271 251 262 292 297
233 246 218 238 258 218 291 295 204 178 150 145 131 81 357 329 225 181 239 170 179 182 176 194 190 176 174 224 208 223 223 209 201 219 212 240 224 203 227 246 254 274 307 307
241 228 214 244 306 174 310 236 238 190 125 108 120 352 320 201 148 88 132 115 184 173 171 164 207 79 129 165 222 231 234 233 219 198 202 221 246 250 261 277 288 303 295 293
226 222 222 223 308 222 189 251 330 181 97 101 103 137 2 355 101 78 76 35 46 53 169 223 308 127 185 223 217 216 224 236 235 218 226 247 242 249 256 259 273 293 294 287
216 235 216 172 319 99 289 284 298 156 104 85 117 112 93 27 107 88 23 110 74 44 79 98 127 108 222 242 226 239 236 208 226 222 219 243 253 268 272 282 294 291 302 320
210 198 89 31 311 121 249 236 296 73 108 119 137 144 144 167 123 128 135 148 119 123 127 186 144 176 220 231 223 225 224 232 237 239 234 227 230 246 265 293 317 322 321 312
153 139 117 235 219 159 137 65 345 50 16 215 146 134 136 160 136 97 76 50 112 138 199 135 241 234 227 237 221 222 220 211 205 236 229 214 229 249 283 284 295 299 316 326
181 172 195 319 261 142 69 163 179 133 147 199 151 146 134 147 132 116 117 129 164 175 180 170 226 244 228 230 227 231 229 225 234 227 224 211 187 194 214 235 271 299 301 300
167 113 93 54 291 201 171 177 156 192 184 164 149 147 126 112 107 89 108 96 193 175 145 182 251 231 216 202 216 216 216 210 206 190 180 174 188 192 188 221 267 286 288 288
141 165 147 161 209 211 181 177 197 160 168 146 145 142 126 127 98 114 128 133 188 131 157 221 245 199 187 200 196 176 174 181 170 167 165 169 172 172 185 218 255 282 288 313
188 151 205 216 202 222 207 190 183 162 141 142 142 133 115 123 112 130 125 158 148 199 213 224 185 201 174 160 156 162 175 175 177 180 175 183 181 188 181 234 269 281 281 298
206 142 228 221 234 276 237 220 141 138 140 137 132 103 99 98 121 162 135 173 207 213 226 170 170 172 160 163 169 175 176 174 177 173 181 161 172 222 245 244 260 263 256 252
202 182 243 260 261 246 230 164 141 140 142 134 93 107 146 162 148 161 189 184 214 199 197 159 176 170 168 162 170 178 170 161 181 190 189 183 195 213 246 255 249 241 234 244
218 189 199 263 291 215 191 158 146 155 144 133 119 125 177 129 182 187 179 204 151 141 161 159 169 169 165 161 164 156 152 167 180 193 207 208 140 251 280 281 282 253 230 231